TimeCST,TemperatureF,Dew PointF,Humidity,Sea Level PressureIn,VisibilityMPH,Wind Direction,Wind SpeedMPH,Gust SpeedMPH,PrecipitationIn,Events,Conditions,WindDirDegrees,DateUTC
12:54 AM,15.1,12.9,91,30.07,5.0,WNW,9.2,-,N/A,,Clear,300,2013-02-23 06:54:00
1:54 AM,12.9,12.0,96,30.07,2.5,West,4.6,-,N/A,,Clear,280,2013-02-23 07:54:00
2:16 AM,15.8,14.0,93,29.96,3.0,West,6.9,-,N/A,,Clear,270,2013-02-23 08:16:00
2:54 AM,16.0,14.0,92,30.04,4.0,West,5.8,-,N/A,,Clear,260,2013-02-23 08:54:00
3:34 AM,12.2,10.4,92,29.92,2.5,SW,5.8,-,N/A,,Clear,230,2013-02-23 09:34:00
3:44 AM,15.8,14.0,93,29.92,3.0,WSW,5.8,-,N/A,,Clear,240,2013-02-23 09:44:00
3:54 AM,16.0,14.0,92,30.01,4.0,WSW,6.9,-,N/A,,Clear,240,2013-02-23 09:54:00
4:49 AM,15.8,12.2,86,29.91,1.8,West,4.6,-,N/A,,Clear,280,2013-02-23 10:49:00
4:50 AM,15.1,12.9,91,30.00,1.8,West,4.6,-,N/A,,Clear,280,2013-02-23 10:50:00
4:59 AM,15.8,12.2,86,29.91,3.0,WNW,6.9,-,N/A,,Clear,290,2013-02-23 10:59:00
5:54 AM,14.0,12.0,92,30.01,5.0,WSW,6.9,-,0.00,,Clear,250,2013-02-23 11:54:00
6:25 AM,15.8,12.2,86,29.90,6.0,WSW,5.8,-,0.00,Rain,Light Freezing Rain,240,2013-02-23 12:25:00
6:54 AM,16.0,12.9,88,29.99,5.0,WSW,5.8,-,0.00,,Clear,250,2013-02-23 12:54:00
7:54 AM,18.0,17.1,96,29.99,3.0,WSW,4.6,-,N/A,,Partly Cloudy,240,2013-02-23 13:54:00
8:54 AM,19.9,19.0,96,29.99,4.0,WSW,3.5,-,N/A,,Overcast,240,2013-02-23 14:54:00
9:54 AM,27.0,25.0,92,29.96,7.0,South,6.9,-,N/A,,Clear,180,2013-02-23 15:54:00
10:54 AM,30.9,26.1,82,29.95,9.0,SSW,11.5,-,N/A,,Clear,200,2013-02-23 16:54:00
11:54 AM,34.0,27.0,75,29.94,10.0,SSW,11.5,-,N/A,,Clear,200,2013-02-23 17:54:00
12:54 PM,34.0,28.0,79,29.92,10.0,SSW,12.7,-,N/A,,Clear,210,2013-02-23 18:54:00
1:54 PM,34.0,28.0,79,29.89,10.0,SSW,11.5,-,N/A,,Clear,200,2013-02-23 19:54:00
2:54 PM,35.1,28.9,78,29.86,10.0,South,16.1,-,N/A,,Clear,190,2013-02-23 20:54:00
3:54 PM,35.1,28.9,78,29.83,10.0,South,13.8,-,N/A,,Clear,180,2013-02-23 21:54:00
4:54 PM,35.1,28.9,78,29.83,8.0,South,12.7,-,N/A,,Clear,180,2013-02-23 22:54:00
5:54 PM,33.1,28.9,85,29.82,7.0,South,10.4,-,N/A,,Clear,170,2013-02-23 23:54:00
6:54 PM,32.0,28.0,85,29.83,7.0,SSE,9.2,-,N/A,,Clear,160,2013-02-24 00:54:00
7:54 PM,30.0,27.0,88,29.84,6.0,SSE,9.2,-,N/A,,Clear,160,2013-02-24 01:54:00
8:54 PM,28.9,27.0,92,29.83,4.0,SSE,11.5,-,N/A,,Clear,160,2013-02-24 02:54:00
9:54 PM,28.0,26.1,92,29.81,5.0,SE,11.5,-,N/A,,Clear,140,2013-02-24 03:54:00
10:54 PM,28.0,26.1,92,29.79,6.0,SE,12.7,-,N/A,,Clear,140,2013-02-24 04:54:00
11:54 PM,28.0,26.1,92,29.78,6.0,SSE,12.7,-,N/A,,Clear,150,2013-02-24 05:54:00